sat.trackr.live / text

‹ back to catalog

UNKNOWN

NORAD 85431

UNKNOWN UNKNOWN UNKNOWN

§ Identity

Operator
Country
Launch date
Launch site
Launch vehicle
Mass (kg)
RCS (m²)

External: N2YO · Heavens-Above

§ Orbital elements

Epoch: 2026-04-27T07:12:59.999616Z

Period
571.75 min
Inclination
54.9033°
Eccentricity
0.1645252
Mean motion
2.51857907 rev/d
Perigee alt
12,686.6 km
Apogee alt
20,195.3 km
Semi-major
22,819.1 km
B*
0.0000e+0
RAAN
209.3556°
Arg perigee
271.1559°
Mean anomaly
152.0193°
Rev number
1

§ Raw data

UNKNOWN1 85431U          26117.30069444 -.00000020  00000+0  00000+0 0  99992 85431  54.9033 209.3556 1645252 271.1559 152.0193  2.51857907    18

JSON: /api/v1/satellites/85431 · /tle

For live sub-satellite position, see the globe view (requires WebGL).

§ Visibility from observer

Set your observer location to see the next 7 days of passes ≥ 10°. The values pass through the URL so the page stays shareable.

No JS? Fill the form by hand. The geolocation button needs JavaScript.